{"data":{"norad_id":69387,"intl_designator":"2026-124F","name":"QIANFAN-170","alt_names":[],"object_type":"PAYLOAD","status":"ACTIVE","operator":null,"country":"PRC","launch_date":"2026-06-04","launch_site_code":"TAISC","launch_vehicle":null,"mission":null,"orbit_class":"UNKNOWN","rcs_meters":null,"size_class":null,"mass_kg":null,"dimensions":null,"purposes":[],"wikipedia_slug":null,"has_3d_model":false,"image_url":null,"decayed_at":null,"tle_current":{"epoch":"2026-09-20T04:15:37.694304Z","epoch_age_seconds":62432,"freshness":"FRESH","line1":"1 69387U 26124F   26263.17751961  .00000103  00000+0  14036-3 0  9994","line2":"2 69387  89.0075 352.0239 0001785  98.8350 261.3003 13.51026144 14885","mean_motion":13.51026144,"eccentricity":0.0001785,"inclination_deg":89.0075,"raan_deg":352.0239,"arg_perigee_deg":98.835,"mean_anomaly_deg":261.3003,"bstar":0.00014036,"rev_number":1488,"period_min":106.58565020338,"perigee_km":1067.156294105,"apogee_km":1069.8147383433,"semimajor_km":7446.6225162241,"source":"CELESTRAK","updated_at":"2026-09-20T09:00:24.859423Z"}}}